Flag for U.S.A. Weather past 2 weeks in Newport News, Virginia, U.S.A.

Now
38 °F

Sunny.


Feels Like: 29 °F
Forecast: 24 / 40 °F
Wind: 15 mph from West

Location: Newport News / Williamsburg International Airport

Current Time: Jan 31, 2015 at 2:20:44 PM

Latest Report: Jan 31, 2015 at 1:54 PM


Visibility: 10 mi

Pressure: 30.29 "Hg

Humidity: 27%

Dew point: 7 °F

Location of Newport NewsLocation

Historic Weather in Newport News — Graph

°F

Newport News temperature yesterday

Maximum temperature yesterday: 47 °F (at 11:54 AM)
Minimum temperature yesterday: 29 °F (at 11:54 PM)
Average temperature yesterday: 41 °F

Past Weeks' High & Low Weather Summary

 TemperatureHumidityPressure
High62 °F (Jan 20, 2:54 PM)93% (Jan 22, 10:03 AM)30.45 "Hg (Jan 22, 10:03 AM)
Low23 °F (Jan 29, 6:54 AM)23% (Jan 28, 4:54 PM)29.44 "Hg (Jan 24, 12:54 PM)
Average41 °F64%30.01 "Hg
* Reported Jan 16 12:54 PM — Jan 31 12:54 PM, Newport News, Weather by CustomWeather, © 2014

Note: Actual official high and low records may vary slightly from our data, if they occured in-between our weather recording intervals... More about our weather records

Advertising

Newport News weather history for previous 24 hours

 ConditionsComfort  
Time TempWeatherWind HumidityBarometerVisibility
12:54 PM
Jan 31
37 °FSunny.14 mph30%30.30 "Hg10 mi
11:54 AM35 °FSunny.14 mph32%30.34 "Hg10 mi
10:54 AM33 °FSunny.14 mph30%30.36 "Hg10 mi
9:54 AM33 °FSunny.13 mph28%30.34 "Hg10 mi
8:54 AM28 °FSunny.10 mph39%30.34 "Hg10 mi
7:54 AM25 °FSunny.10 mph44%30.34 "Hg10 mi
6:54 AM24 °FClear.9 mph46%30.32 "Hg10 mi
5:54 AM25 °FClear.10 mph44%30.29 "Hg10 mi
4:54 AM26 °FClear.15 mph42%30.28 "Hg10 mi
3:54 AM26 °FClear.12 mph42%30.27 "Hg10 mi
2:54 AM26 °FClear.12 mph42%30.27 "Hg10 mi
1:54 AM27 °FClear.9 mph41%30.27 "Hg10 mi
12:54 AM28 °FClear.9 mph39%30.25 "Hg10 mi
11:54 PM
Jan 30
29 °FClear.17 mph39%30.24 "Hg10 mi
10:54 PM31 °FClear.20 mph36%30.22 "Hg10 mi
9:54 PM32 °FClear.15 mph40%30.21 "Hg10 mi
8:54 PM34 °FClear.9 mph38%30.19 "Hg10 mi
7:54 PM36 °FClear.14 mph34%30.17 "Hg10 mi
6:54 PM38 °FPassing clouds.13 mph33%30.14 "Hg10 mi
5:54 PM40 °FClear.16 mph30%30.11 "Hg10 mi
4:54 PM42 °FSunny.25 mph38%30.07 "Hg10 mi
3:54 PM45 °FPartly sunny.13 mph35%30.03 "Hg10 mi
2:54 PM43 °FMostly cloudy.15 mph47%30.02 "Hg10 mi
Weather by CustomWeather, © 2014

See weather overviewHow to use our weather pages